Location: Cherry Springs State Park
(41.6616°N, 77.8240°W)
Time: 00:05:29
(UTC-04:00)

Daily predictions for brighter satellites

Satellite Brightness Start Highest point End
(mag) Time Altitude Azimuth Time Altitude Azimuth Time Altitude Azimuth
Cosmos 2058 4.0 00:05:54 33° ENE 00:05:54 33° ENE 00:09:10 10° NNE
Lacrosse 5 4.0 00:02:02 10° W 00:06:17 26° NNW 00:10:32 10° NNE
CZ-4 R/B 3.7 00:09:38 10° NNE 00:14:28 75° ESE 00:14:51 70° SSE
Cosmos 1709 Rocket 4.3 00:11:19 10° NNW 00:17:24 56° W 00:19:27 39° SSW
ALOS 2 3.0 00:20:27 51° E 00:20:40 52° ENE 00:24:57 10° N
Cosmos 2278 Rocket 3.0 00:20:26 23° SW 00:23:45 48° WNW 00:29:16 10° NNE
NOSS 3-4 (A) 3.7 00:20:16 24° SW 00:24:08 68° NW 00:30:35 10° NNE
NOSS 3-4 (C) 3.7 00:20:26 24° SW 00:24:14 69° NW 00:30:40 10° NNE
NOSS 2-2 (E) 3.5 00:24:27 68° WNW 00:24:35 69° NW 00:29:00 10° NNE
Cosmos 407 Rocket 4.1 00:25:31 39° E 00:25:31 39° E 00:30:10 10° NE
Cosmos 2074 Rocket 4.0 00:23:29 10° N 00:29:46 77° E 00:31:22 52° SSE
Cosmos 1441 Rocket 3.8 00:30:52 10° N 00:34:02 53° NNE 00:34:02 53° NNE
Cosmos 1190 Rocket 4.3 00:35:11 50° ESE 00:35:17 50° ESE 00:40:19 10° NNE
Cosmos 1461 4.2 00:34:20 27° WSW 00:36:23 42° NW 00:40:57 10° NNE
CENTAUR R/B 3.2 00:29:13 10° NNW 00:37:14 78° NE 00:41:25 34° SE
Cosmos 1766 Rocket 3.8 00:37:40 57° W 00:37:55 58° W 00:42:21 10° N
Cosmos 1408 Rocket 3.6 00:40:10 68° W 00:40:16 68° W 00:44:43 10° N
ADEOS Rocket 2.9 00:35:40 10° NNE 00:41:33 79° ESE 00:43:06 54° S
DELTA 2 DEB (DPAF) 4.0 00:41:47 87° E 00:41:48 87° ENE 00:46:17 10° NNW
Cosmos 405 Rocket 3.4 00:38:25 10° N 00:41:21 47° NNE 00:41:21 47° NNE
USA 234 3.3 00:38:50 10° NE 00:45:15 55° SE 00:46:16 50° SSE
Cosmos 1515 Rocket 3.7 00:43:38 10° N 00:47:56 67° ENE 00:47:56 67° ENE
Cosmos 1151 Rocket 3.1 00:45:06 10° N 00:49:07 67° NE 00:49:07 67° NE
RESURS DK-1 2.6 00:50:15 67° NNW 00:50:15 67° NNW 00:54:08 10° NNE
Cosmos 1703 4.4 00:50:17 35° WNW 00:50:17 35° WNW 00:53:47 10° N
SL-27 R/B 3.7 00:47:05 10° NNW 00:49:37 39° NW 00:49:37 39° NW
Cosmos 1869 3.9 00:48:04 10° N 00:51:31 49° NE 00:51:31 49° NE
H-2A R/B 2.1 00:53:56 69° NE 00:53:56 69° NE 00:57:42 10° N
Cosmos 371 Rocket 4.1 00:49:30 10° N 00:54:07 41° ENE 00:54:59 38° E
Cosmos 2327 Rocket 4.4 00:48:09 10° N 00:54:24 85° W 00:55:51 56° S
NOSS 2-2 (D) 4.3 00:53:56 38° WNW 00:54:37 42° NW 00:58:50 10° NNE
Cosmos 2369 Rocket 3.5 00:55:50 25° ESE 00:55:55 25° ESE 01:00:28 10° NE
Cosmos 1610 Rocket 4.4 00:50:17 10° N 00:56:34 82° E 00:57:58 56° SSE
Cosmos 2297 4.1 01:01:31 42° WSW 01:03:14 59° WNW 01:08:54 10° NNE
Meteor 2-14 Rocket 4.3 00:57:13 10° N 01:03:18 82° E 01:04:35 58° SSE
Meteor 2-10 Rocket 3.4 00:59:21 10° N 01:04:29 80° E 01:05:02 70° SE
Cosmos 2184 Rocket 4.2 00:58:22 10° NNW 01:04:36 61° W 01:06:02 48° SW
Mayak -0.4 01:03:39 10° N 01:07:36 42° WNW 01:07:41 42° WNW
Cosmos 2228 Rocket 3.1 01:04:21 10° NNW 01:08:37 73° WNW 01:08:37 73° WNW
Meteor 2-21 4.4 01:03:30 10° NNW 01:09:32 73° W 01:10:42 57° SSW
Cosmos 2154 Rocket 3.9 01:04:54 10° N 01:11:18 88° E 01:12:48 56° S
Cosmos 2082 Rocket 2.7 01:06:15 10° NW 01:11:39 44° WSW 01:12:02 44° WSW
deb Chang Zheng 4 3.7 01:08:21 10° NNE 01:12:31 70° ENE 01:12:31 70° ENE
Cosmos 2181 Rocket 4.4 01:13:16 42° SE 01:14:45 51° E 01:20:47 10° NNE
ATLAS 3B R/B 4.3 01:11:45 10° WNW 01:15:45 17° WSW 01:16:10 17° WSW
ATLAS 5 CENTAUR R/B 3.1 01:14:01 24° W 01:16:00 34° NW 01:20:34 10° NNE
Cosmos 2151 3.9 01:20:45 39° WNW 01:20:45 39° WNW 01:24:43 10° N
Cosmos 1833 Rocket 3.6 01:15:56 10° NW 01:20:51 32° WSW 01:20:59 32° WSW
Cosmos 2341 Rocket 4.1 01:15:31 10° N 01:21:53 72° E 01:23:35 50° SSE
Cosmos 332 Rocket 3.7 01:17:12 10° NNW 01:22:09 80° ENE 01:22:28 75° ESE
In-Cosmos 22 Rocket 4.1 01:30:41 61° SE 01:31:18 66° E 01:36:38 10° NNE
Cosmos 1743 Rocket 4.5 01:31:37 37° W 01:31:41 38° WNW 01:35:48 10° N
Cosmos 962 Rocket 4.4 01:30:07 10° N 01:36:22 86° W 01:37:45 57° S
CZ-4B R/B 4.5 01:33:13 10° N 01:38:08 40° WNW 01:39:27 34° WSW
Cosmos 1295 Rocket 4.4 01:34:06 10° N 01:40:20 84° W 01:41:49 55° S
Cosmos 1805 Rocket 3.6 01:40:58 73° ENE 01:40:58 73° ENE 01:45:12 10° NNE
Cosmos 1900 4.2 01:40:36 76° WSW 01:40:57 84° WNW 01:45:53 10° NNE
SL-8 Rocket 4.1 01:35:28 10° N 01:41:44 67° E 01:43:40 45° SE
Cosmos 1933 3.9 01:41:00 10° N 01:44:46 49° ENE 01:44:46 49° ENE
Cosmos 1741 Rocket 4.5 01:44:36 44° ESE 01:45:07 46° ESE 01:50:10 10° NNE
Cosmos 1943 Rocket 2.5 01:45:58 47° SE 01:46:36 50° ESE 01:51:58 10° NE
CZ-4B R/B 3.8 01:46:58 15° ENE 01:47:03 15° ENE 01:48:57 10° NNE
COSMOS 2487 3.6 01:43:47 10° NNW 01:46:11 41° NNW 01:46:11 41° NNW
Sich 1 3.2 01:49:46 62° E 01:49:46 62° E 01:54:05 10° NNE
MOS 1 Rocket 3.2 01:46:58 10° NNE 01:52:00 86° ESE 01:52:22 76° S
BREEZE-M TANK 3.5 01:55:45 34° E 01:55:45 34° E 01:57:26 10° ENE
Cosmos 1892 3.1 01:56:16 61° NNE 01:56:16 61° NNE 01:59:28 10° N
Cosmos 1140 Rocket 3.7 01:55:35 51° WSW 01:56:25 58° WNW 02:01:30 10° NNE
Timation 2 Rocket 4.1 01:51:16 10° NNW 01:57:59 89° W 02:00:37 42° SSE
CZ-2D R/B 4.2 01:55:31 10° NE 01:58:38 16° E 02:00:48 13° ESE
Cosmos 1954 Rocket 4.3 01:58:39 48° WSW 01:59:34 56° WNW 02:04:40 10° NNE
CZ-4C R/B 3.6 02:03:26 56° NE 02:03:26 56° NE 02:06:44 10° N
Cosmos 1707 Rocket 3.4 02:00:36 10° N 02:05:01 88° W 02:05:03 88° SW
SL-16 R/B 4.1 02:01:48 10° ESE 02:06:59 30° ENE 02:12:12 10° N
Cosmos 2366 rocket 3.9 02:01:50 10° N 02:08:01 81° E 02:10:00 46° SSE
Cosmos 1633 Rocket 3.0 02:08:40 72° ESE 02:08:51 73° E 02:13:17 10° NNE
Cosmos 1470 Rocket 4.3 02:14:17 40° ESE 02:14:55 43° E 02:19:10 10° NNE
Cosmos 1959 Rocket 4.5 02:11:43 10° N 02:18:05 79° W 02:20:03 47° S
Cosmos 304 Rocket 3.6 02:20:16 10° NNW 02:25:03 73° WSW 02:25:31 66° SSW
PSLV R/B 4.1 02:22:04 10° N 02:26:41 55° WNW 02:27:27 49° WSW
Landsat 5 3.2 02:26:59 75° E 02:27:05 75° ENE 02:30:55 10° N
Meteor 2-3 Rocket 3.7 02:25:50 49° S 02:27:28 85° E 02:33:17 10° N
CENTAUR R/B 4.1 02:20:56 10° NW 02:27:28 27° WSW 02:28:33 26° WSW
USA 234 4.0 02:21:56 10° NE 02:28:11 49° NNW 02:33:36 14° W
Cosmos 1570 Rocket 3.9 02:23:57 10° NNW 02:29:16 85° ENE 02:30:55 45° SSE
Resurs 1-4 Rocket 3.4 02:26:33 10° NE 02:31:16 31° E 02:33:30 23° SE
Cosmos 1666 Rocket 3.9 02:31:34 49° W 02:31:49 49° W 02:36:02 10° N
Cosmos 1933 Rocket 3.7 02:36:28 52° SE 02:37:11 62° E 02:41:30 10° NNE
SL-08 R/B 4.4 02:32:11 10° NNW 02:38:16 69° W 02:40:18 43° SSW
Cosmos 2369 Rocket 2.8 02:37:37 33° WSW 02:39:38 46° WNW 02:45:05 10° NNE
Cosmos 1689 Rocket 2.8 02:41:36 54° NNE 02:41:36 54° NNE 02:44:05 10° N
Cosmos 1850 Rocket 4.4 02:40:46 41° WSW 02:42:09 52° WNW 02:47:17 10° N
COSMOS 2455 4.4 02:39:03 10° NNW 02:44:33 35° NE 02:49:59 10° ESE
BREEZE-M DEB (TANK) 3.3 02:42:16 31° SW 02:45:35 79° SSE 02:48:31 10° ENE
GP-B 3.0 02:47:48 10° N 02:52:16 83° E 02:53:22 51° S
Lacrosse 4 Rocket 2.0 02:52:46 42° SSE 02:53:37 48° ESE 02:57:54 10° NE
Cosmos 2242 Rocket 3.6 02:52:49 10° NNW 02:57:16 64° W 02:58:04 53° SW
Cosmos 292 Rocket 4.5 02:54:34 10° N 02:59:17 52° ENE 03:03:10 15° SE
CBERS-1 4.1 02:54:23 10° NNE 02:59:31 69° ESE 03:01:34 36° S
ARIANE 5 R/B 3.8 02:56:11 10° NE 03:00:37 31° E 03:03:29 18° SSE
SL-08 R/B 3.5 03:00:50 26° SSE 03:03:28 67° ENE 03:08:09 10° N
Cosmos 1606 2.7 03:01:30 10° NNW 03:05:17 60° W 03:05:33 58° WSW
Cosmos 1763 Rocket 3.4 03:01:22 10° NNW 03:06:28 84° ENE 03:09:28 25° SSE
Cosmos 1825 2.6 03:07:42 43° W 03:07:58 43° W 03:11:36 10° N
Cosmos 1821 Rocket 4.0 03:02:14 10° N 03:08:35 84° E 03:12:45 23° S
Cosmos 1869 Rocket 4.3 03:10:45 26° SSE 03:12:47 45° E 03:16:58 10° NNE
Cosmos 405 4.3 03:15:32 26° WNW 03:15:38 26° WNW 03:18:42 10° NNW
MOZ.5/SAFIR/RUBIN 5/SL-8 4.2 03:13:25 18° SSE 03:16:51 61° ENE 03:21:27 10° N
Cosmos 1656 Rocket 3.7 03:14:34 34° SW 03:17:03 72° WNW 03:22:42 10° NNE
Cosmos 1408 3.9 03:18:48 26° W 03:19:06 26° WNW 03:22:18 10° NNW
CZ-4B R/B 3.1 03:20:23 19° WNW 03:20:23 19° WNW 03:21:57 10° NW
IRS-1C 4.1 03:14:47 10° NNE 03:20:09 78° ESE 03:22:56 29° S
Cosmos 1814 Rocket 3.9 03:17:03 10° NNW 03:22:22 78° WSW 03:25:46 22° S
Cosmos 1867 3.5 03:20:08 34° SSW 03:22:34 81° ESE 03:28:03 10° NE
BREEZE-M DEB (TANK) 2.6 03:20:46 10° NW 03:23:00 58° NNE 03:27:17 10° ESE
Cosmos 1833 4.4 03:20:03 10° NW 03:25:24 47° WSW 03:27:45 30° SSW
Cosmos 540 Rocket 4.3 03:20:47 10° N 03:25:48 51° ENE 03:30:45 10° SE
NPP 3.8 03:23:17 10° N 03:28:35 60° WNW 03:31:13 29° SW
Meteor 2-6 Rocket 4.1 03:23:37 10° NNW 03:28:59 70° W 03:32:08 25° S
Cosmos 1943 Rocket 3.7 03:27:29 16° W 03:30:38 25° NW 03:35:11 10° N
Cosmos 1437 Rocket 3.1 03:29:54 29° S 03:31:51 65° E 03:35:56 10° NNE
Cosmos 1703 Rocket 3.5 03:27:55 10° N 03:32:20 78° W 03:34:34 29° S
Spot 4 Rocket 4.2 03:30:43 10° NNE 03:35:51 70° ESE 03:39:10 22° S
Cosmos 841 Rocket 3.4 03:30:42 10° NNW 03:35:55 77° WSW 03:40:08 16° SSE
Cosmos 1818 3.6 03:30:44 10° NW 03:36:06 56° WSW 03:40:38 14° SSE
CZ-2D R/B 2.2 03:33:52 10° N 03:39:08 67° WNW 03:42:08 26° SSW
AQUA 4.1 03:35:01 10° N 03:39:39 53° WNW 03:41:55 28° SW
Helios 1A Rocket 4.4 03:36:38 10° NE 03:40:15 31° E 03:43:26 12° SSE
Cosmos 1782 3.7 03:36:51 10° NNW 03:40:22 30° W 03:41:03 28° WSW
ADEOS II 3.6 03:38:25 10° NNE 03:43:07 32° E 03:47:46 10° SSE
Cosmos 1184 Rocket 3.1 03:40:32 10° N 03:43:48 65° E 03:45:51 21° SSE
Okean 1-7 3.0 03:40:43 10° N 03:45:08 78° W 03:47:59 21° S
Meteor 1-10 Rocket 4.5 03:41:13 10° NNW 03:46:35 49° W 03:49:55 22° SSW
IRS-1D 3.5 03:42:00 10° N 03:47:08 68° WNW 03:50:08 24° SSW
Meteor 1-27 Rocket 3.8 03:43:28 10° NNW 03:49:17 80° W 03:54:46 12° S
SL-16 R/B 2.8 03:46:32 21° SSW 03:50:21 46° W 03:56:16 10° NNW
Cosmos 2219 3.4 03:45:38 10° NNW 03:51:19 76° ENE 03:56:56 10° SSE
H-2A R/B 3.0 03:50:07 10° N 03:53:53 40° WNW 03:55:37 25° WSW
PSLV R/B 2.7 03:52:36 30° W 03:53:54 75° S 03:56:51 10° E
Meteor 1-4 Rocket 2.5 03:56:02 25° S 03:58:03 90° WNW 04:01:45 10° N
PSLV R/B 4.1 03:58:15 20° S 04:01:02 54° W 04:05:10 10° NNW
Cosmos 1733 Rocket 4.0 03:57:40 10° SSE 04:01:46 45° E 04:05:54 10° NNE
Cosmos 1354 Rocket 4.1 03:58:31 18° SSW 04:02:26 78° ESE 04:07:40 10° NNE
Cosmos 1605 Rocket 3.9 03:58:36 10° N 04:04:41 75° W 04:10:47 10° S
Genesis I 4.1 04:02:24 10° NNW 04:06:26 54° NE 04:10:24 10° SE
Cosmos 1486 Rocket 4.5 04:03:10 20° SW 04:06:35 50° WNW 04:11:47 10° N
Cosmos 44 Rocket 4.1 04:03:27 15° S 04:07:10 45° ESE 04:11:55 10° NE
USA 229 DEB 3.9 03:59:57 10° NW 04:07:13 87° ENE 04:14:38 10° SE
GPS 2-04 Rocket1 4.4 04:06:03 16° S 04:07:18 19° SSE 04:10:10 10° ESE
USA 229 3.9 04:00:03 10° NW 04:07:19 87° NE 04:14:45 10° SE
SL-8 R/B 3.8 04:05:40 10° WNW 04:10:30 79° NNE 04:15:20 10° ESE
Resurs 1-4 Rocket 3.1 04:06:18 10° N 04:11:04 34° WNW 04:14:35 16° WSW
CBERS 1 LM4 rocket 4.4 04:07:16 10° NNE 04:12:21 81° WNW 04:16:25 15° SSW
Cosmos 2297 Rocket 3.2 04:14:11 10° NNW 04:19:42 51° ENE 04:25:10 10° SE
SAR-Lupe-2 3.5 04:17:06 10° S 04:20:37 64° WSW 04:24:11 10° NNW
Cosmos 44 3.2 04:17:36 17° SW 04:21:08 83° WNW 04:26:08 10° NNE
BREEZE M DEB (TANK) 4.1 04:19:09 10° NW 04:22:01 21° N 04:23:51 10° NE
Cosmos 1153 Rocket 4.5 04:18:30 10° N 04:24:45 78° W 04:31:03 10° S
Cosmos 389 Rocket 2.6 04:21:41 12° S 04:24:59 82° E 04:28:38 10° NNE
Cosmos 2227 Rocket 2.7 04:22:18 10° NNW 04:27:58 66° ENE 04:33:36 10° SSE
ATLAS CENTAUR Rocket 3.6 04:26:13 13° SSW 04:28:52 20° SSE 04:34:53 10° ESE
COSMOS 2455 3.2 04:24:56 10° NW 04:30:33 42° WSW 04:36:08 10° S
Cosmos 968 Rocket 3.6 04:27:08 10° SSW 04:32:23 81° ESE 04:37:41 10° NNE
Lacrosse 4 Rocket 3.4 04:29:20 10° W 04:32:36 20° NW 04:35:55 10° N
Cosmos 1503 Rocket 4.3 04:28:22 14° SW 04:32:41 54° WNW 04:37:47 10° N
UNKNOWN OBJECT B 3.3 04:33:28 10° N 04:37:17 46° WNW 04:40:53 11° SW
ARIANE 5 R/B 3.5 04:35:21 10° N 04:39:40 30° WNW 04:43:50 11° SW
Meteor 1-20 Rocket 4.4 04:34:25 10° S 04:40:01 79° E 04:45:46 10° NNE
Okean O Rocket 4.3 04:38:12 10° NE 04:41:02 16° E 04:43:50 10° SE
Delta 2 Rocket 4.2 04:37:14 10° WSW 04:41:22 40° S 04:46:07 10° ESE
Meteor 1-14 Rocket 4.3 04:42:22 10° SSW 04:48:01 82° W 04:53:53 10° N
CZ-2D R/B 4.3 04:44:18 10° N 04:48:11 35° WNW 04:51:58 10° SW
ATLAS CENTAUR R/B 1.2 04:45:54 10° SW 04:49:35 84° WNW 04:53:36 10° NNE
Cosmos 1633 3.2 04:46:50 10° SSW 04:50:13 39° WNW 04:53:39 10° N
Meteor 1-18 Rocket 4.3 04:46:09 10° N 04:51:52 89° WSW 04:57:26 10° S
SL-19 R/B 4.0 04:52:00 10° SSE 04:55:18 85° WSW 04:59:09 10° NNW
BREEZE-M DEB (TANK) 3.2 04:52:18 10° WNW 04:56:39 58° NNE 04:59:20 10° E
ASTEX 1 3.6 04:51:56 10° S 04:56:51 57° W 05:01:48 10° NNW
Cosmos 1656 3.8 04:54:41 10° SSW 05:00:23 86° WNW 05:06:06 10° NNE
Cosmos 2173 Rocket 4.0 04:54:47 10° NNW 05:00:51 71° W 05:06:53 10° S
Cosmos 2082 3.8 04:56:21 10° NNW 05:02:02 90° N 05:07:39 10° SSE
ADEOS 4.4 04:58:07 10° N 05:02:51 37° WNW 05:07:37 10° SW
Meteor 1-25 Rocket 4.3 04:57:52 10° SSW 05:03:21 61° WNW 05:08:52 10° N
PSLV R/B 3.7 04:59:23 10° NNE 05:03:47 81° ESE 05:08:10 10° S
Centaur D AC-28 4.4 05:05:54 10° WSW 05:08:45 12° SW 05:10:50 10° SSW
CZ-3 R/B 4.4 04:58:19 10° SSW 05:10:46 19° S 05:16:48 10° SE
